Philip, SD

1:24 AM MST on February 09, 2016 (GMT -0700)
Philip

Weather History for KPHP - January, 2011

Change the Weather History Date:

Sunday, January 23, 2011

  Actual Average Record
Temperature  
Mean Temperature 21 °F 22 °F  
Max Temperature 39 °F 35 °F 63 °F (2005)
Min Temperature 3 °F 10 °F -21 °F (1952)
Degree Days  
Heating Degree Days 44 42  
Month to date heating degree days 1139 995  
Since 1 July heating degree days 3682 3930  
Cooling Degree Days 0 0  
Month to date cooling degree days 0 0  
Year to date cooling degree days 0 0  
Moisture  
Dew Point 14 °F    
Average Humidity 73    
Maximum Humidity 91    
Minimum Humidity 54    
Precipitation  
Precipitation 0.00 in 0.01 in 0.11 in (1972)
Month to date precipitation 0.14 0.23  
Year to date precipitation 0.14 0.23  
Sea Level Pressure  
Sea Level Pressure 29.98 in    
Wind  
Wind Speed 11 mph (West)    
Max Wind Speed 26 mph    
Max Gust Speed 33 mph    
Visibility 10 miles    
Events      
T = Trace of Precipitation, MM = Missing Value Source: NWS Daily Summary

Daily Weather History Graph

Daily Weather History Graph

Search for Another Location

Airport or City:

Trip Planner

Search our weather history database for the weather conditions in past years. The results will help you decide how hot, cold, wet, or windy it might be!

Date:

Astronomy

Jan. 23, 2011 Rise Set
Actual Time 7:12 AM MST 4:44 PM MST
Civil Twilight 6:41 AM MST 5:15 PM MST
Nautical Twilight 6:06 AM MST 5:50 PM MST
Astronomical Twilight 5:31 AM MST 6:25 PM MST
Moon 10:01 PM MST (1/23) 8:58 AM MST (1/23)
Length of Visible Light 10h 34m
Length of Day
9h 31m
Waning Gibbous, 80% of the Moon is Illuminated
Jan 23
Waning Gibbous
Jan 26
Last Quarter
Feb 2
New
Feb 11
First Quarter
Feb 18
Full

Hourly Weather History & Observations

Time (MST) Temp. Windchill Dew Point Humidity Pressure Visibility Wind Dir Wind Speed Gust Speed Precip Events Conditions
12:31 AM 6.8 °F -7.8 °F 1.4 °F 79% 30.16 in 10.0 mi WSW 10.4 mph - N/A   Overcast
12:43 AM 6.8 °F -4.8 °F 1.4 °F 79% 30.15 in 10.0 mi WSW 6.9 mph - N/A   Scattered Clouds
12:55 AM 6.1 °F -6.8 °F 1.0 °F 80% 30.27 in 10.0 mi WSW 8.1 mph - N/A   Partly Cloudy
1:22 AM 8.6 °F -4.7 °F 3.2 °F 79% 30.15 in 10.0 mi West 9.2 mph - N/A   Mostly Cloudy
1:55 AM 9.0 °F -5.1 °F 3.0 °F 77% 30.25 in 10.0 mi WSW 10.4 mph - N/A   Mostly Cloudy
2:09 AM 8.6 °F -5.5 °F 3.2 °F 79% 30.11 in 10.0 mi WSW 10.4 mph - N/A   Scattered Clouds
2:55 AM 8.1 °F -7.0 °F 3.0 °F 80% 30.22 in 10.0 mi WSW 11.5 mph - N/A   Clear
3:55 AM 7.0 °F -5.7 °F 1.9 °F 80% 30.17 in 10.0 mi West 8.1 mph - N/A   Clear
4:55 AM 6.1 °F -2.8 °F 1.9 °F 83% 30.12 in 10.0 mi WSW 4.6 mph - N/A   Clear
5:55 AM 3.0 °F -4.4 °F -0.0 °F 87% 30.10 in 10.0 mi NW 3.5 mph - N/A   Clear
6:55 AM 3.9 °F -3.4 °F 1.0 °F 88% 30.06 in 10.0 mi WNW 3.5 mph - N/A   Clear
7:55 AM 9.0 °F - 6.1 °F 88% 30.02 in 10.0 mi Calm Calm - N/A   Clear
8:55 AM 16.0 °F - 10.9 °F 81% 29.98 in 10.0 mi Calm Calm - N/A   Clear
9:55 AM 24.1 °F 13.7 °F 17.1 °F 75% 29.94 in 10.0 mi WSW 10.4 mph 16.1 mph N/A   Clear
10:55 AM 28.9 °F 21.9 °F 19.0 °F 67% 29.90 in 10.0 mi West 6.9 mph - N/A   Clear
11:55 AM 30.9 °F 27.5 °F 19.9 °F 64% 29.84 in 10.0 mi Variable 3.5 mph - N/A   Clear
12:55 PM 33.1 °F 22.6 °F 21.0 °F 61% 29.81 in 10.0 mi WSW 16.1 mph 20.7 mph N/A   Clear
1:55 PM 34.0 °F 25.0 °F 23.0 °F 64% 29.79 in 10.0 mi West 12.7 mph - N/A   Overcast
2:55 PM 37.0 °F 30.4 °F 24.1 °F 59% 29.78 in 10.0 mi West 9.2 mph - N/A   Overcast
3:55 PM 37.9 °F 29.6 °F 23.0 °F 55% 29.78 in 10.0 mi West 13.8 mph - N/A   Clear
4:55 PM 37.9 °F 27.9 °F 24.1 °F 57% 29.80 in 10.0 mi WNW 19.6 mph 24.2 mph N/A   Overcast
5:55 PM 37.0 °F 26.4 °F 27.0 °F 67% 29.83 in 10.0 mi WNW 20.7 mph - N/A   Overcast
7:55 PM 36.0 °F 27.1 °F 28.9 °F 76% 29.85 in 10.0 mi WNW 13.8 mph - N/A   Overcast
8:55 PM 37.0 °F 27.7 °F 28.9 °F 73% 29.85 in 10.0 mi WNW 16.1 mph - N/A   Overcast
9:55 PM 37.0 °F 28.1 °F 28.0 °F 70% 29.86 in 10.0 mi WNW 15.0 mph - N/A   Mostly Cloudy
10:55 PM 35.1 °F 25.9 °F 28.9 °F 78% 29.88 in 10.0 mi WNW 13.8 mph - N/A   Mostly Cloudy
11:55 PM 34.0 °F 21.8 °F 30.0 °F 85% 29.89 in 10.0 mi WNW 23.0 mph - N/A   Clear